| time (UTC) | temp C | wind direction | speed KPH | gust KPH | rain 1hr cm | rain 24hr cm | rain mn cm | humidity % | barometer mb |
| 20260507170057 | 19 | 16 | 4.8 | 12.9 | 0.00 | 0.00 | 0.00 | 83 | 1013.6 |
| 20260507164556 | 18 | 42 | 6.4 | 17.7 | 0.00 | 0.00 | 0.00 | 84 | 1013.7 |
| 20260507163054 | 18 | 2 | 4.8 | 16.1 | 0.00 | 0.00 | 0.00 | 85 | 1013.9 |
| 20260507161553 | 18 | 333 | 8.0 | 16.1 | 0.00 | 0.00 | 0.00 | 85 | 1013.7 |
| 20260507160111 | 18 | 306 | 6.4 | 20.9 | 0.00 | 0.00 | 0.00 | 85 | 1013.7 |
| 20260507154548 | 18 | 29 | 9.7 | 17.7 | 0.00 | 0.00 | 0.00 | 85 | 1013.9 |
| 20260507153046 | 18 | 9 | 8.0 | 19.3 | 0.00 | 0.00 | 0.00 | 85 | 1013.9 |
| 20260507151548 | 18 | 102 | 4.8 | 14.5 | 0.00 | 0.00 | 0.00 | 86 | 1013.8 |
| 20260507150045 | 18 | 25 | 6.4 | 19.3 | 0.00 | 0.00 | 0.00 | 86 | 1013.7 |
| 20260507144544 | 18 | 334 | 9.7 | 22.5 | 0.00 | 0.00 | 0.00 | 85 | 1013.7 |
| 20260507143041 | 18 | 30 | 11.3 | 27.4 | 0.00 | 0.00 | 0.00 | 86 | 1013.4 |
| 20260507141540 | 18 | 6 | 6.4 | 17.7 | 0.00 | 0.00 | 0.00 | 86 | 1013.4 |
| 20260507140046 | 18 | 59 | 6.4 | 17.7 | 0.00 | 0.00 | 0.00 | 86 | 1013.3 |
| 20260507134536 | 18 | 332 | 11.3 | 22.5 | 0.00 | 0.00 | 0.00 | 86 | 1013.7 |
| 20260507133035 | 18 | 38 | 3.2 | 19.3 | 0.00 | 0.00 | 0.00 | 86 | 1013.9 |
| 20260507131600 | 18 | 20 | 8.0 | 16.1 | 0.00 | 0.00 | 0.00 | 86 | 1013.5 |
| 20260507130027 | 18 | 26 | 8.0 | 19.3 | 0.00 | 0.00 | 0.00 | 86 | 1013.3 |
| 20260507124524 | 19 | 315 | 4.8 | 19.3 | 0.00 | 0.00 | 0.00 | 86 | 1012.9 |
| 20260507123027 | 19 | 321 | 4.8 | 17.7 | 0.00 | 0.00 | 0.00 | 86 | 1012.6 |
| 20260507121519 | 19 | 13 | 4.8 | 12.9 | 0.00 | 0.00 | 0.00 | 86 | 1012.4 |
| 20260507120028 | 20 | 49 | 1.6 | 11.3 | 0.00 | 0.00 | 0.00 | 87 | 1012.1 |
| 20260507114514 | 20 | 14 | 1.6 | 9.7 | 0.00 | 0.00 | 0.00 | 87 | 1012.0 |
| 20260507113026 | 20 | 357 | 1.6 | 12.9 | 0.00 | 0.00 | 0.00 | 87 | 1011.5 |
| 20260507111513 | 20 | 350 | 4.8 | 16.1 | 0.00 | 0.00 | 0.00 | 87 | 1011.3 |
| 20260507110009 | 20 | 19 | 4.8 | 14.5 | 0.00 | 0.00 | 0.00 | 87 | 1011.5 |
| 20260507104509 | 20 | 358 | 3.2 | 14.5 | 0.00 | 0.00 | 0.00 | 87 | 1011.3 |
| 20260507103005 | 20 | 31 | 6.4 | 19.3 | 0.00 | 0.00 | 0.00 | 87 | 1011.2 |
| 20260507101503 | 20 | 37 | 6.4 | 19.3 | 0.00 | 0.00 | 0.00 | 87 | 1011.0 |
| 20260507100000 | 20 | 29 | 6.4 | 19.3 | 0.00 | 0.00 | 0.00 | 86 | 1010.8 |
| 20260507094620 | 20 | 336 | 4.8 | 20.9 | 0.00 | 0.00 | 0.00 | 86 | 1010.7 |
| 20260507093057 | 21 | 336 | 6.4 | 19.3 | 0.00 | 0.00 | 0.00 | 86 | 1010.7 |
| 20260507091554 | 21 | 10 | 6.4 | 17.7 | 0.00 | 0.00 | 0.00 | 86 | 1010.8 |
| 20260507090052 | 21 | 27 | 11.3 | 24.1 | 0.00 | 0.00 | 0.00 | 86 | 1010.5 |
| 20260507084558 | 21 | 30 | 6.4 | 27.4 | 0.00 | 0.00 | 0.00 | 86 | 1010.3 |
| 20260507083048 | 21 | 319 | 6.4 | 19.3 | 0.00 | 0.00 | 0.00 | 86 | 1010.2 |
| 20260507081546 | 21 | 55 | 9.7 | 19.3 | 0.00 | 0.00 | 0.00 | 86 | 1010.3 |
| 20260507080047 | 22 | 43 | 8.0 | 16.1 | 0.00 | 0.00 | 0.00 | 86 | 1010.3 |
| 20260507074546 | 22 | 36 | 9.7 | 20.9 | 0.00 | 0.00 | 0.00 | 86 | 1010.4 |
| 20260507073042 | 22 | 29 | 4.8 | 17.7 | 0.00 | 0.00 | 0.00 | 86 | 1010.5 |
| 20260507071543 | 22 | 348 | 8.0 | 20.9 | 0.00 | 0.00 | 0.00 | 85 | 1010.5 |
| 20260507070047 | 22 | 334 | 8.0 | 19.3 | 0.00 | 0.00 | 0.00 | 85 | 1010.6 |
| 20260507064544 | 22 | 306 | 6.4 | 19.3 | 0.00 | 0.00 | 0.00 | 86 | 1010.5 |
| 20260507063033 | 22 | 13 | 9.7 | 17.7 | 0.00 | 0.00 | 0.00 | 86 | 1010.5 |
| 20260507061535 | 23 | 11 | 9.7 | 19.3 | 0.00 | 0.00 | 0.00 | 86 | 1010.4 |
| 20260507060036 | 23 | 34 | 6.4 | 17.7 | 0.00 | 0.00 | 0.00 | 86 | 1010.2 |
| 20260507054537 | 23 | 19 | 9.7 | 19.3 | 0.00 | 0.00 | 0.00 | 86 | 1010.1 |
| 20260507053026 | 23 | 12 | 4.8 | 17.7 | 0.00 | 0.00 | 0.00 | 87 | 1010.2 |
| 20260507051521 | 23 | 19 | 8.0 | 19.3 | 0.00 | 0.00 | 0.00 | 88 | 1010.1 |
| 20260507050036 | 23 | 331 | 4.8 | 17.7 | 0.00 | 0.00 | 0.00 | 87 | 1010.3 |
| 20260507044522 | 24 | 323 | 6.4 | 16.1 | 0.00 | 0.00 | 0.00 | 87 | 1010.2 |
| 20260507043013 | 24 | 319 | 9.7 | 24.1 | 0.00 | 0.00 | 0.00 | 87 | 1010.3 |
| 20260507041511 | 25 | 298 | 8.0 | 17.7 | 0.00 | 0.00 | 0.00 | 92 | 1010.1 |
| 20260507040013 | 25 | 262 | 1.6 | 6.4 | 0.00 | 0.00 | 0.00 | 92 | 1009.8 |
| 20260507034506 | 25 | 237 | 0.0 | 3.2 | 0.00 | 0.00 | 0.00 | 92 | 1009.6 |
| 20260507033004 | 25 | 234 | 0.0 | 0.0 | 0.00 | 0.00 | 0.00 | 92 | 1009.3 |
| 20260507031506 | 25 | 234 | 0.0 | 0.0 | 0.00 | 0.00 | 0.00 | 91 | 1009.0 |
| 20260507030004 | 25 | 234 | 0.0 | 0.0 | 0.00 | 0.00 | 0.00 | 91 | 1008.8 |
| 20260507024502 | 25 | 234 | 0.0 | 0.0 | 0.00 | 0.00 | 0.00 | 91 | 1008.6 |
| 20260507023002 | 26 | 234 | 0.0 | 0.0 | 0.00 | 0.00 | 0.00 | 90 | 1008.5 |
| 20260507021613 | 26 | 234 | 0.0 | 0.0 | 0.00 | 0.00 | 0.00 | 90 | 1008.3 |
| 20260507020101 | 26 | 232 | 0.0 | 0.0 | 0.00 | 0.00 | 0.00 | 90 | 1008.0 |
| 20260507014602 | 26 | 201 | 0.0 | 0.0 | 0.00 | 0.00 | 0.00 | 89 | 1007.8 |
| 20260507013100 | 26 | 201 | 0.0 | 1.6 | 0.00 | 0.00 | 0.00 | 88 | 1007.7 |
| 20260507011604 | 26 | 238 | 0.0 | 0.0 | 0.00 | 0.00 | 0.00 | 88 | 1007.4 |
| 20260507004558 | 26 | 200 | 0.0 | 0.0 | 0.00 | 0.00 | 0.00 | 87 | 1007.2 |
| 20260507003057 | 26 | 200 | 0.0 | 0.0 | 0.00 | 0.00 | 0.00 | 87 | 1007.0 |
| 20260507001605 | 27 | 231 | 0.0 | 3.2 | 0.00 | 0.00 | 0.00 | 86 | 1006.9 |
| 20260507000058 | 27 | 171 | 0.0 | 1.6 | 0.00 | 0.00 | 0.00 | 86 | 1006.9 |
| 20260506234624 | 27 | 213 | 0.0 | 0.0 | 0.00 | 0.00 | 0.00 | 85 | 1006.7 |
| 20260506233057 | 27 | 138 | 0.0 | 0.0 | 0.00 | 0.00 | 0.00 | 85 | 1006.9 |
| 20260506231556 | 27 | 113 | 0.0 | 0.0 | 0.00 | 0.00 | 0.00 | 84 | 1006.7 |
| 20260506230058 | 27 | 209 | 0.0 | 0.0 | 0.00 | 0.00 | 0.00 | 84 | 1006.6 |
| 20260506224555 | 27 | 200 | 0.0 | 3.2 | 0.00 | 0.00 | 0.00 | 84 | 1006.5 |
| 20260506223059 | 27 | 163 | 0.0 | 3.2 | 0.00 | 0.00 | 0.00 | 83 | 1006.5 |
| 20260506221555 | 27 | 206 | 0.0 | 8.0 | 0.00 | 0.00 | 0.00 | 83 | 1006.7 |
| 20260506220053 | 27 | 140 | 0.0 | 3.2 | 0.00 | 0.00 | 0.00 | 83 | 1006.6 |
| 20260506214552 | 28 | 171 | 0.0 | 3.2 | 0.00 | 0.00 | 0.00 | 82 | 1006.6 |
| 20260506213054 | 28 | 113 | 0.0 | 4.8 | 0.00 | 0.00 | 0.00 | 81 | 1006.6 |
| 20260506211550 | 29 | 131 | 0.0 | 3.2 | 0.00 | 0.00 | 0.00 | 81 | 1006.6 |
| 20260506210047 | 28 | 192 | 0.0 | 8.0 | 0.00 | 0.00 | 0.00 | 82 | 1006.6 |
| 20260506204555 | 28 | 167 | 0.0 | 3.2 | 0.00 | 0.00 | 0.00 | 82 | 1006.8 |
| 20260506203045 | 28 | 138 | 0.0 | 3.2 | 0.00 | 0.00 | 0.00 | 82 | 1006.9 |
| 20260506201543 | 28 | 125 | 0.0 | 4.8 | 0.00 | 0.00 | 0.00 | 83 | 1007.1 |
| 20260506200055 | 27 | 130 | 0.0 | 3.2 | 0.00 | 0.00 | 0.00 | 84 | 1007.3 |
| 20260506194548 | 27 | 131 | 0.0 | 3.2 | 0.00 | 0.00 | 0.00 | 84 | 1007.4 |
| 20260506194519 | 27 | 131 | 0.0 | 3.2 | 0.00 | 0.00 | 0.00 | 84 | 1007.4 |
| 20260506193039 | 27 | 182 | 0.0 | 4.8 | 0.00 | 0.00 | 0.00 | 84 | 1007.6 |
| 20260506191539 | 28 | 204 | 0.0 | 1.6 | 0.00 | 0.00 | 0.00 | 84 | 1007.8 |
| 20260506190039 | 28 | 86 | 0.0 | 0.0 | 0.00 | 0.00 | 0.00 | 84 | 1008.0 |
| 20260506184536 | 27 | 141 | 0.0 | 1.6 | 0.00 | 0.00 | 0.00 | 85 | 1008.1 |
| 20260506183038 | 27 | 152 | 0.0 | 1.6 | 0.00 | 0.00 | 0.00 | 85 | 1008.2 |
| 20260506181536 | 27 | 152 | 0.0 | 1.6 | 0.00 | 0.00 | 0.00 | 84 | 1008.5 |
| 20260506180033 | 27 | 154 | 0.0 | 1.6 | 0.00 | 0.00 | 0.00 | 83 | 1008.5 |
| 20260506174532 | 27 | 198 | 0.0 | 3.2 | 0.00 | 0.00 | 0.00 | 84 | 1008.5 |
| 20260506173030 | 27 | 204 | 0.0 | 1.6 | 0.00 | 0.00 | 0.00 | 84 | 1008.8 |
| 20260506171539 | 27 | 146 | 0.0 | 6.4 | 0.00 | 0.00 | 0.00 | 84 | 1008.8 |